Private Wetterstation Wechselburg
Wetterdaten: Samstag, 31.10.2009
Datum Zeit Temp. +2m Bodentemp. Temp.+5cm Temp. Wind Windchill X Diff Temp. Feuchte +2m Feuchte +5cm Sonnenschein Luftdruck Regen Wind Richtung Richtung Sonnenschein UV Taupunkt Windchill Windben
31.10.2009 00:00 2,2 C 9,9 C 1,7 C 1,7 C 0,7 C 0,0 C 87 % 92 % 0 % 1029,8 hPa 0,0 l/m 0,5 km/h (0 Bft) O-NO 67 0 min 0,0 UV-I 0,3 C 0,7 C 2,6 km/h (1 Bft)
31.10.2009 00:07 2,3 C 9,8 C 1,8 C 1,8 C 0,8 C 0,0 C 87 % 92 % 0 % 1029,8 hPa 0,0 l/m 1,1 km/h (1 Bft) O-NO 67 0 min 0,0 UV-I 0,4 C 0,8 C 2,3 km/h (1 Bft)
31.10.2009 00:10 2,3 C 9,7 C 1,8 C 1,8 C 0,9 C 0,0 C 87 % 92 % 0 % 1029,8 hPa 0,0 l/m 1,0 km/h (0 Bft) S 180 0 min 0,0 UV-I 0,4 C 0,9 C 0,0 km/h (0 Bft)
31.10.2009 00:15 2,5 C 9,7 C 2,0 C 2,0 C 0,9 C 0,0 C 87 % 92 % 0 % 1029,8 hPa 0,0 l/m 0,3 km/h (0 Bft) N-NW 337 0 min 0,0 UV-I 0,6 C 0,9 C 0,0 km/h (0 Bft)
31.10.2009 00:20 2,4 C 9,7 C 2,0 C 1,9 C 1,0 C 0,0 C 87 % 91 % 0 % 1029,6 hPa 0,0 l/m 0,0 km/h (0 Bft) O-NO 67 0 min 0,0 UV-I 0,5 C 1,0 C 0,0 km/h (0 Bft)
31.10.2009 00:25 2,5 C 9,7 C 2,0 C 2,0 C 1,0 C 0,0 C 87 % 91 % 0 % 1029,6 hPa 0,0 l/m 0,3 km/h (0 Bft) O-NO 67 0 min 0,0 UV-I 0,6 C 1,0 C 2,1 km/h (1 Bft)
31.10.2009 00:30 2,5 C 9,7 C 2,0 C 2,0 C 1,1 C 0,0 C 87 % 91 % 0 % 1029,6 hPa 0,0 l/m 1,6 km/h (1 Bft) NO 45 0 min 0,0 UV-I 0,6 C 1,1 C 2,3 km/h (1 Bft)
31.10.2009 00:35 2,4 C 9,7 C 2,1 C 2,0 C 1,2 C 0,0 C 87 % 91 % 0 % 1029,6 hPa 0,0 l/m 2,1 km/h (1 Bft) O-NO 67 0 min 0,0 UV-I 0,5 C 1,2 C 4,2 km/h (1 Bft)
31.10.2009 00:40 2,5 C 9,7 C 2,3 C 2,1 C 1,3 C 0,0 C 87 % 91 % 0 % 1029,4 hPa 0,0 l/m 1,9 km/h (1 Bft) NO 45 0 min 0,0 UV-I 0,6 C 1,3 C 0,0 km/h (0 Bft)
31.10.2009 00:45 2,6 C 9,6 C 2,3 C 2,2 C 1,3 C 0,0 C 88 % 91 % 0 % 1029,4 hPa 0,0 l/m 1,3 km/h (1 Bft) SW 225 0 min 0,0 UV-I 0,8 C 1,3 C 4,7 km/h (1 Bft)
31.10.2009 00:50 2,7 C 9,7 C 2,4 C 2,2 C 1,3 C 0,0 C 88 % 91 % 0 % 1029,4 hPa 0,0 l/m 0,0 km/h (0 Bft) S 180 0 min 0,0 UV-I 0,9 C 1,3 C 0,0 km/h (0 Bft)
31.10.2009 00:55 2,9 C 9,7 C 2,4 C 2,4 C 1,3 C 0,0 C 88 % 92 % 0 % 1029,4 hPa 0,0 l/m 0,2 km/h (0 Bft) SW 225 0 min 0,0 UV-I 1,1 C 1,3 C 0,0 km/h (0 Bft)
31.10.2009 01:00 2,8 C 9,7 C 2,3 C 2,3 C 1,3 C 0,0 C 88 % 92 % 0 % 1029,2 hPa 0,0 l/m 0,2 km/h (0 Bft) SW 225 0 min 0,0 UV-I 1,0 C 1,3 C 0,0 km/h (0 Bft)
31.10.2009 01:06 2,8 C 9,7 C 2,3 C 2,3 C 1,2 C 0,0 C 88 % 92 % 0 % 1029,2 hPa 0,0 l/m 0,0 km/h (0 Bft) SW 225 0 min 0,0 UV-I 1,0 C 1,2 C 0,0 km/h (0 Bft)
31.10.2009 01:07 2,8 C 9,7 C 2,3 C 2,3 C 1,2 C 0,0 C 88 % 92 % 0 % 1029,2 hPa 0,0 l/m 0,0 km/h (0 Bft) SW 225 0 min 0,0 UV-I 1,0 C 1,2 C 0,0 km/h (0 Bft)
31.10.2009 01:10 2,7 C 9,7 C 2,2 C 2,1 C 1,0 C 0,0 C 88 % 91 % 0 % 1029,2 hPa 0,0 l/m 0,0 km/h (0 Bft) N-NW 337 0 min 0,0 UV-I 0,9 C 1,0 C 0,0 km/h (0 Bft)
31.10.2009 01:15 2,7 C 9,7 C 2,2 C 2,1 C 0,8 C 0,0 C 87 % 91 % 0 % 1029,2 hPa 0,0 l/m 0,0 km/h (0 Bft) N-NW 337 0 min 0,0 UV-I 0,8 C 0,8 C 0,0 km/h (0 Bft)
31.10.2009 01:20 2,7 C 9,7 C 2,1 C 1,9 C 0,4 C 0,0 C 87 % 91 % 0 % 1029,3 hPa 0,0 l/m 0,0 km/h (0 Bft) N-NW 337 0 min 0,0 UV-I 0,8 C 0,4 C 0,0 km/h (0 Bft)
31.10.2009 01:25 2,5 C 9,7 C 2,0 C 1,7 C 0,2 C 0,0 C 88 % 91 % 0 % 1029,3 hPa 0,0 l/m 0,0 km/h (0 Bft) N-NW 337 0 min 0,0 UV-I 0,7 C 0,2 C 0,0 km/h (0 Bft)
31.10.2009 01:30 2,4 C 9,7 C 2,0 C 1,6 C 0,0 C 0,0 C 87 % 91 % 0 % 1029,3 hPa 0,0 l/m 0,2 km/h (0 Bft) N 360 0 min 0,0 UV-I 0,5 C 0,0 C 0,0 km/h (0 Bft)
31.10.2009 01:35 2,5 C 9,7 C 1,9 C 1,7 C 0,0 C 0,0 C 88 % 91 % 0 % 1029,3 hPa 0,0 l/m 0,2 km/h (0 Bft) N-NW 337 0 min 0,0 UV-I 0,7 C 0,0 C 0,0 km/h (0 Bft)
31.10.2009 01:40 2,4 C 9,7 C 1,9 C 1,5 C -0,3 C 0,0 C 88 % 91 % 0 % 1029,3 hPa 0,0 l/m 0,0 km/h (0 Bft) N-NO 22 0 min 0,0 UV-I 0,6 C -0,3 C 0,0 km/h (0 Bft)
31.10.2009 01:45 2,4 C 9,7 C 1,9 C 1,5 C -0,4 C 0,0 C 87 % 91 % 0 % 1029,3 hPa 0,0 l/m 0,0 km/h (0 Bft) W 270 0 min 0,0 UV-I 0,5 C -0,4 C 0,0 km/h (0 Bft)
31.10.2009 01:50 2,3 C 9,7 C 1,7 C 1,3 C -0,7 C 0,0 C 87 % 91 % 0 % 1029,3 hPa 0,0 l/m 0,0 km/h (0 Bft) W 270 0 min 0,0 UV-I 0,4 C -0,7 C 0,0 km/h (0 Bft)
31.10.2009 01:55 2,3 C 9,6 C 1,7 C 1,2 C -0,9 C 0,0 C 87 % 91 % 0 % 1029,3 hPa 0,0 l/m 0,0 km/h (0 Bft) N-NW 337 0 min 0,0 UV-I 0,4 C -0,9 C 0,0 km/h (0 Bft)
31.10.2009 02:00 2,3 C 9,6 C 1,7 C 1,3 C -0,8 C 0,0 C 87 % 91 % 0 % 1029,4 hPa 0,0 l/m 0,0 km/h (0 Bft) NO 45 0 min 0,0 UV-I 0,4 C -0,8 C 0,0 km/h (0 Bft)
31.10.2009 02:10 2,1 C 9,6 C 1,5 C 1,1 C -0,9 C 0,0 C 86 % 91 % 0 % 1029,4 hPa 0,0 l/m 0,0 km/h (0 Bft) N-NO 22 0 min 0,0 UV-I 0,0 C -0,9 C 0,0 km/h (0 Bft)
31.10.2009 02:15 2,0 C 9,6 C 1,5 C 1,0 C -1,0 C 0,0 C 87 % 91 % 0 % 1029,4 hPa 0,0 l/m 0,0 km/h (0 Bft) N-NO 22 0 min 0,0 UV-I 0,1 C -1,0 C 0,0 km/h (0 Bft)
31.10.2009 02:20 2,0 C 9,6 C 1,5 C 1,0 C -1,0 C 0,0 C 87 % 91 % 0 % 1029,4 hPa 0,0 l/m 0,0 km/h (0 Bft) N-NO 22 0 min 0,0 UV-I 0,1 C -1,0 C 0,0 km/h (0 Bft)
31.10.2009 02:25 2,0 C 9,7 C 1,5 C 1,0 C -1,1 C 0,0 C 87 % 91 % 0 % 1029,4 hPa 0,0 l/m 0,0 km/h (0 Bft) NW 315 0 min 0,0 UV-I 0,1 C -1,1 C 0,0 km/h (0 Bft)
31.10.2009 02:30 2,0 C 9,5 C 1,3 C 1,0 C -1,1 C 0,0 C 87 % 91 % 0 % 1029,4 hPa 0,0 l/m 0,0 km/h (0 Bft) W-SW 247 0 min 0,0 UV-I 0,1 C -1,1 C 0,0 km/h (0 Bft)
31.10.2009 02:35 2,0 C 9,5 C 1,3 C 0,9 C -1,3 C 0,0 C 87 % 91 % 0 % 1029,4 hPa 0,0 l/m 0,0 km/h (0 Bft) W-SW 247 0 min 0,0 UV-I 0,1 C -1,3 C 0,0 km/h (0 Bft)
31.10.2009 02:40 1,7 C 9,7 C 1,3 C 0,7 C -1,3 C 0,0 C 86 % 91 % 0 % 1029,4 hPa 0,0 l/m 0,0 km/h (0 Bft) NO 45 0 min 0,0 UV-I -0,4 C -1,3 C 0,0 km/h (0 Bft)
31.10.2009 02:45 1,7 C 9,7 C 1,1 C 0,7 C -1,3 C 0,0 C 87 % 91 % 0 % 1029,4 hPa 0,0 l/m 0,0 km/h (0 Bft) NO 45 0 min 0,0 UV-I -0,2 C -1,3 C 0,0 km/h (0 Bft)
31.10.2009 02:50 1,7 C 9,7 C 1,1 C 0,6 C -1,5 C 0,0 C 87 % 91 % 0 % 1029,4 hPa 0,0 l/m 0,0 km/h (0 Bft) W-SW 247 0 min 0,0 UV-I -0,2 C -1,5 C 0,0 km/h (0 Bft)
31.10.2009 02:55 1,8 C 9,7 C 1,2 C 0,6 C -1,7 C 0,0 C 87 % 92 % 0 % 1029,4 hPa 0,0 l/m 0,0 km/h (0 Bft) W-SW 247 0 min 0,0 UV-I -0,1 C -1,7 C 0,0 km/h (0 Bft)
31.10.2009 03:00 1,6 C 9,7 C 1,0 C 0,5 C -1,7 C 0,0 C 87 % 91 % 0 % 1029,2 hPa 0,0 l/m 0,0 km/h (0 Bft) W-SW 247 0 min 0,0 UV-I -0,3 C -1,7 C 0,0 km/h (0 Bft)
31.10.2009 03:10 1,5 C 9,7 C 0,9 C 0,4 C -1,9 C 0,0 C 87 % 91 % 0 % 1029,2 hPa 0,0 l/m 0,0 km/h (0 Bft) O-NO 67 0 min 0,0 UV-I -0,4 C -1,9 C 0,0 km/h (0 Bft)
31.10.2009 03:15 1,3 C 9,7 C 0,7 C 0,3 C -1,7 C 0,0 C 87 % 91 % 0 % 1029,2 hPa 0,0 l/m 0,0 km/h (0 Bft) O-NO 67 0 min 0,0 UV-I -0,6 C -1,7 C 0,0 km/h (0 Bft)
31.10.2009 03:20 1,2 C 9,7 C 0,7 C 0,2 C -1,7 C 0,0 C 88 % 91 % 0 % 1029,5 hPa 0,0 l/m 0,0 km/h (0 Bft) O-NO 67 0 min 0,0 UV-I -0,6 C -1,7 C 0,0 km/h (0 Bft)
31.10.2009 03:25 1,3 C 9,7 C 0,7 C 0,3 C -1,7 C 0,0 C 88 % 91 % 0 % 1029,5 hPa 0,0 l/m 0,0 km/h (0 Bft) W-SW 247 0 min 0,0 UV-I -0,5 C -1,7 C 0,0 km/h (0 Bft)
31.10.2009 03:30 1,5 C 9,7 C 0,7 C 0,4 C -1,9 C 0,0 C 88 % 92 % 0 % 1029,5 hPa 0,0 l/m 0,0 km/h (0 Bft) N-NW 337 0 min 0,0 UV-I -0,3 C -1,9 C 0,0 km/h (0 Bft)
31.10.2009 03:35 1,3 C 9,7 C 0,6 C 0,2 C -2,1 C 0,0 C 87 % 91 % 0 % 1029,5 hPa 0,0 l/m 0,0 km/h (0 Bft) N-NW 337 0 min 0,0 UV-I -0,6 C -2,1 C 0,0 km/h (0 Bft)
31.10.2009 03:40 1,3 C 9,5 C 0,4 C 0,1 C -2,3 C 0,0 C 88 % 91 % 0 % 1029,9 hPa 0,0 l/m 0,0 km/h (0 Bft) N-NW 337 0 min 0,0 UV-I -0,5 C -2,3 C 0,0 km/h (0 Bft)
31.10.2009 03:45 1,3 C 9,5 C 0,5 C 0,0 C -2,5 C 0,0 C 88 % 92 % 0 % 1029,9 hPa 0,0 l/m 0,0 km/h (0 Bft) SW 225 0 min 0,0 UV-I -0,5 C -2,5 C 0,0 km/h (0 Bft)
31.10.2009 03:50 1,3 C 9,5 C 0,4 C 0,0 C -2,6 C 0,0 C 88 % 91 % 0 % 1029,9 hPa 0,0 l/m 0,0 km/h (0 Bft) SW 225 0 min 0,0 UV-I -0,5 C -2,6 C 0,0 km/h (0 Bft)
31.10.2009 03:55 1,1 C 9,5 C 0,3 C -0,1 C -2,6 C 0,0 C 87 % 91 % 0 % 1029,9 hPa 0,0 l/m 0,0 km/h (0 Bft) O-NO 67 0 min 0,0 UV-I -0,8 C -2,6 C 0,0 km/h (0 Bft)
31.10.2009 04:00 0,9 C 9,5 C 0,2 C -0,2 C -2,5 C 0,0 C 87 % 92 % 0 % 1029,7 hPa 0,0 l/m 0,0 km/h (0 Bft) O-NO 67 0 min 0,0 UV-I -1,0 C -2,5 C 0,0 km/h (0 Bft)
31.10.2009 04:06 1,1 C 9,5 C 0,2 C -0,2 C -2,8 C 0,0 C 88 % 92 % 0 % 1029,7 hPa 0,0 l/m 0,0 km/h (0 Bft) O-NO 67 0 min 0,0 UV-I -0,7 C -2,8 C 0,0 km/h (0 Bft)
31.10.2009 04:10 0,9 C 9,6 C 0,0 C -0,3 C -2,7 C 0,0 C 87 % 92 % 0 % 1029,7 hPa 0,0 l/m 0,0 km/h (0 Bft) O-NO 67 0 min 0,0 UV-I -1,0 C -2,7 C 0,0 km/h (0 Bft)
31.10.2009 04:15 0,9 C 9,6 C -0,1 C -0,3 C -2,6 C 0,0 C 88 % 92 % 0 % 1029,7 hPa 0,0 l/m 0,0 km/h (0 Bft) O-NO 67 0 min 0,0 UV-I -0,9 C -2,6 C 0,0 km/h (0 Bft)
31.10.2009 04:20 0,8 C 9,6 C -0,1 C -0,3 C -2,5 C 0,0 C 88 % 92 % 0 % 1029,7 hPa 0,0 l/m 0,0 km/h (0 Bft) O-NO 67 0 min 0,0 UV-I -1,0 C -2,5 C 0,0 km/h (0 Bft)
31.10.2009 04:25 0,8 C 9,6 C -0,1 C -0,3 C -2,5 C 0,0 C 88 % 93 % 0 % 1029,7 hPa 0,0 l/m 0,0 km/h (0 Bft) O-NO 67 0 min 0,0 UV-I -1,0 C -2,5 C 0,0 km/h (0 Bft)
31.10.2009 04:30 0,7 C 9,5 C -0,1 C -0,4 C -2,7 C 0,0 C 88 % 92 % 0 % 1029,7 hPa 0,0 l/m 0,0 km/h (0 Bft) O-NO 67 0 min 0,0 UV-I -1,1 C -2,7 C 0,0 km/h (0 Bft)
31.10.2009 04:35 0,6 C 9,5 C -0,1 C -0,5 C -2,6 C 0,0 C 88 % 92 % 0 % 1029,7 hPa 0,0 l/m 0,0 km/h (0 Bft) O-NO 67 0 min 0,0 UV-I -1,2 C -2,6 C 0,0 km/h (0 Bft)
31.10.2009 04:40 0,7 C 9,5 C -0,1 C -0,4 C -2,5 C 0,0 C 88 % 93 % 0 % 1029,9 hPa 0,0 l/m 0,0 km/h (0 Bft) O-NO 67 0 min 0,0 UV-I -1,1 C -2,5 C 0,0 km/h (0 Bft)
31.10.2009 04:45 0,7 C 9,5 C -0,1 C -0,4 C -2,5 C 0,0 C 88 % 93 % 0 % 1029,9 hPa 0,0 l/m 0,0 km/h (0 Bft) O-NO 67 0 min 0,0 UV-I -1,1 C -2,5 C 0,0 km/h (0 Bft)
31.10.2009 04:50 0,8 C 9,5 C -0,1 C -0,4 C -2,8 C 0,0 C 89 % 93 % 0 % 1029,9 hPa 0,0 l/m 0,2 km/h (0 Bft) W-SW 247 0 min 0,0 UV-I -0,8 C -2,8 C 0,0 km/h (0 Bft)
31.10.2009 04:55 0,8 C 9,5 C -0,1 C -0,4 C -2,8 C 0,0 C 88 % 93 % 0 % 1029,9 hPa 0,0 l/m 0,2 km/h (0 Bft) SW 225 0 min 0,0 UV-I -1,0 C -2,8 C 0,0 km/h (0 Bft)
31.10.2009 05:00 0,6 C 9,5 C -0,1 C -0,6 C -3,0 C 0,0 C 88 % 93 % 0 % 1029,6 hPa 0,0 l/m 0,0 km/h (0 Bft) SW 225 0 min 0,0 UV-I -1,2 C -3,0 C 0,0 km/h (0 Bft)
31.10.2009 05:06 0,7 C 9,5 C -0,1 C -0,5 C -2,8 C 0,0 C 88 % 93 % 0 % 1029,6 hPa 0,0 l/m 0,0 km/h (0 Bft) SW 225 0 min 0,0 UV-I -1,1 C -2,8 C 0,0 km/h (0 Bft)
31.10.2009 05:10 0,4 C 9,4 C -0,3 C -0,5 C -2,4 C 0,0 C 87 % 92 % 0 % 1029,6 hPa 0,0 l/m 0,0 km/h (0 Bft) O-NO 67 0 min 0,0 UV-I -1,5 C -2,4 C 0,0 km/h (0 Bft)
31.10.2009 05:15 0,3 C 9,4 C -0,5 C -0,7 C -2,6 C 0,0 C 87 % 92 % 0 % 1029,6 hPa 0,0 l/m 0,0 km/h (0 Bft) O-NO 67 0 min 0,0 UV-I -1,6 C -2,6 C 0,0 km/h (0 Bft)
31.10.2009 05:20 0,0 C 9,4 C -0,7 C -0,9 C -2,6 C 0,0 C 88 % 92 % 0 % 1029,6 hPa 0,0 l/m 0,0 km/h (0 Bft) O-NO 67 0 min 0,0 UV-I -1,7 C -2,6 C 0,0 km/h (0 Bft)
31.10.2009 05:25 0,1 C 9,4 C -0,7 C -0,9 C -2,8 C 0,0 C 88 % 92 % 0 % 1029,6 hPa 0,0 l/m 0,0 km/h (0 Bft) O-NO 67 0 min 0,0 UV-I -1,6 C -2,8 C 0,0 km/h (0 Bft)
31.10.2009 05:30 0,1 C 9,4 C -0,5 C -0,9 C -3,0 C 0,0 C 88 % 92 % 0 % 1029,6 hPa 0,0 l/m 0,0 km/h (0 Bft) O-NO 67 0 min 0,0 UV-I -1,6 C -3,0 C 0,0 km/h (0 Bft)
31.10.2009 05:35 0,3 C 9,4 C -0,6 C -0,9 C -3,2 C 0,0 C 88 % 92 % 0 % 1029,6 hPa 0,0 l/m 0,0 km/h (0 Bft) O-NO 67 0 min 0,0 UV-I -1,4 C -3,2 C 0,0 km/h (0 Bft)
31.10.2009 05:40 0,2 C 9,4 C -0,6 C -1,0 C -3,3 C 0,0 C 88 % 92 % 0 % 1030,1 hPa 0,0 l/m 0,0 km/h (0 Bft) NW 315 0 min 0,0 UV-I -1,5 C -3,3 C 0,0 km/h (0 Bft)
31.10.2009 05:45 0,1 C 9,4 C -0,6 C -1,0 C -3,2 C 0,0 C 88 % 92 % 0 % 1030,1 hPa 0,0 l/m 0,0 km/h (0 Bft) NW 315 0 min 0,0 UV-I -1,6 C -3,2 C 0,0 km/h (0 Bft)
31.10.2009 05:50 0,0 C 9,4 C -0,7 C -1,0 C -3,0 C 0,0 C 88 % 92 % 0 % 1030,1 hPa 0,0 l/m 0,0 km/h (0 Bft) O-NO 67 0 min 0,0 UV-I -1,7 C -3,0 C 0,0 km/h (0 Bft)
31.10.2009 05:55 0,0 C 9,2 C -0,5 C -1,0 C -3,1 C 0,0 C 88 % 93 % 0 % 1030,1 hPa 0,0 l/m 0,0 km/h (0 Bft) O-NO 67 0 min 0,0 UV-I -1,7 C -3,1 C 0,0 km/h (0 Bft)
31.10.2009 06:00 0,1 C 9,2 C -0,5 C -1,0 C -3,1 C 0,0 C 88 % 93 % 0 % 1030,4 hPa 0,0 l/m 0,0 km/h (0 Bft) O-NO 67 0 min 0,0 UV-I -1,6 C -3,1 C 0,0 km/h (0 Bft)
31.10.2009 06:06 0,1 C 9,2 C -0,6 C -1,0 C -3,3 C 0,0 C 88 % 93 % 0 % 1030,4 hPa 0,0 l/m 0,0 km/h (0 Bft) O-NO 67 0 min 0,0 UV-I -1,6 C -3,3 C 0,0 km/h (0 Bft)
31.10.2009 06:10 0,0 C 9,2 C -0,7 C -1,0 C -3,1 C 0,0 C 88 % 92 % 0 % 1030,4 hPa 0,0 l/m 0,0 km/h (0 Bft) N-NO 22 0 min 0,0 UV-I -1,7 C -3,1 C 0,0 km/h (0 Bft)
31.10.2009 06:15 0,1 C 9,2 C -0,5 C -1,0 C -3,2 C 0,0 C 89 % 93 % 0 % 1030,4 hPa 0,0 l/m 0,0 km/h (0 Bft) W-SW 247 0 min 0,0 UV-I -1,5 C -3,2 C 0,0 km/h (0 Bft)
31.10.2009 06:20 0,2 C 9,2 C -0,5 C -1,0 C -3,3 C 0,0 C 88 % 93 % 0 % 1030,4 hPa 0,0 l/m 0,0 km/h (0 Bft) W 270 0 min 0,0 UV-I -1,5 C -3,3 C 0,0 km/h (0 Bft)
31.10.2009 06:25 0,0 C 9,2 C -0,5 C -1,1 C -3,4 C 0,0 C 87 % 92 % 0 % 1030,4 hPa 0,0 l/m 0,0 km/h (0 Bft) W 270 0 min 0,0 UV-I -1,9 C -3,4 C 0,0 km/h (0 Bft)
31.10.2009 06:30 -0,1 C 9,2 C -0,9 C -1,2 C -3,3 C 0,0 C 88 % 92 % 0 % 1030,4 hPa 0,0 l/m 0,0 km/h (0 Bft) NO 45 0 min 0,0 UV-I -1,8 C -3,3 C 0,0 km/h (0 Bft)
31.10.2009 06:35 -0,1 C 9,2 C -0,9 C -1,1 C -3,2 C 0,0 C 88 % 92 % 0 % 1030,4 hPa 0,0 l/m 0,0 km/h (0 Bft) N-NO 22 0 min 0,0 UV-I -1,8 C -3,2 C 0,0 km/h (0 Bft)
31.10.2009 06:40 -0,1 C 9,1 C -1,0 C -1,1 C -3,0 C 0,0 C 88 % 92 % 0 % 1030,2 hPa 0,0 l/m 0,0 km/h (0 Bft) O-NO 67 0 min 0,0 UV-I -1,8 C -3,0 C 0,0 km/h (0 Bft)
31.10.2009 06:45 -0,1 C 9,1 C -0,9 C -1,1 C -3,1 C 0,0 C 89 % 93 % 0 % 1030,2 hPa 0,0 l/m 0,0 km/h (0 Bft) SW 225 0 min 0,0 UV-I -1,7 C -3,1 C 0,0 km/h (0 Bft)
31.10.2009 06:50 -0,1 C 9,1 C -0,9 C -1,1 C -3,2 C 0,0 C 88 % 92 % 0 % 1030,2 hPa 0,0 l/m 0,0 km/h (0 Bft) SW 225 0 min 0,0 UV-I -1,8 C -3,2 C 0,0 km/h (0 Bft)
31.10.2009 06:55 -0,1 C 9,1 C -0,9 C -1,1 C -3,2 C 0,0 C 88 % 92 % 0 % 1030,2 hPa 0,0 l/m 0,0 km/h (0 Bft) W-SW 247 0 min 0,0 UV-I -1,8 C -3,2 C 0,0 km/h (0 Bft)
31.10.2009 07:00 -0,1 C 9,1 C -0,8 C -1,2 C -3,3 C 0,0 C 89 % 93 % 0 % 1030,6 hPa 0,0 l/m 0,3 km/h (0 Bft) W-SW 247 0 min 0,0 UV-I -1,7 C -3,3 C 0,0 km/h (0 Bft)
31.10.2009 07:10 -0,1 C 9,1 C -1,1 C -1,2 C -3,3 C 0,0 C 88 % 92 % 0 % 1030,6 hPa 0,0 l/m 0,0 km/h (0 Bft) O-NO 67 0 min 0,0 UV-I -1,8 C -3,3 C 0,0 km/h (0 Bft)
31.10.2009 07:15 -0,4 C 9,1 C -1,1 C -1,3 C -3,2 C 0,0 C 88 % 92 % 0 % 1030,6 hPa 0,0 l/m 0,0 km/h (0 Bft) O-NO 67 0 min 0,0 UV-I -2,1 C -3,2 C 0,0 km/h (0 Bft)
31.10.2009 07:20 -0,4 C 9,1 C -1,2 C -1,3 C -3,2 C 0,0 C 88 % 93 % 0 % 1030,6 hPa 0,0 l/m 0,0 km/h (0 Bft) O-NO 67 0 min 0,0 UV-I -2,1 C -3,2 C 0,0 km/h (0 Bft)
31.10.2009 07:25 -0,3 C 9,0 C -1,1 C -1,3 C -3,3 C 0,0 C 89 % 93 % 0 % 1030,6 hPa 0,0 l/m 0,0 km/h (0 Bft) W-SW 247 0 min 0,0 UV-I -1,9 C -3,3 C 0,0 km/h (0 Bft)
31.10.2009 07:30 -0,1 C 9,0 C -0,8 C -1,1 C -3,2 C 0,0 C 89 % 94 % 0 % 1030,6 hPa 0,0 l/m 0,0 km/h (0 Bft) W-SW 247 0 min 0,0 UV-I -1,7 C -3,2 C 0,0 km/h (0 Bft)
31.10.2009 07:35 -0,1 C 9,0 C -0,7 C -1,1 C -3,2 C 0,0 C 89 % 94 % 0 % 1030,6 hPa 0,0 l/m 0,0 km/h (0 Bft) W-SW 247 0 min 0,0 UV-I -1,7 C -3,2 C 0,0 km/h (0 Bft)
31.10.2009 07:40 -0,1 C 9,0 C -0,9 C -1,1 C -3,2 C 0,0 C 88 % 93 % 0 % 1031,1 hPa 0,0 l/m 0,0 km/h (0 Bft) NO 45 0 min 0,0 UV-I -1,8 C -3,2 C 0,0 km/h (0 Bft)
31.10.2009 07:45 -0,4 C 9,0 C -0,9 C -1,3 C -3,0 C 0,0 C 88 % 93 % 0 % 1031,1 hPa 0,0 l/m 0,0 km/h (0 Bft) NO 45 0 min 0,0 UV-I -2,1 C -3,0 C 0,0 km/h (0 Bft)
31.10.2009 07:50 -0,4 C 9,0 C -1,1 C -1,2 C -2,9 C 0,0 C 89 % 93 % 0 % 1031,1 hPa 0,0 l/m 0,0 km/h (0 Bft) O-NO 67 0 min 0,0 UV-I -2,0 C -2,9 C 0,0 km/h (0 Bft)
31.10.2009 07:55 -0,4 C 9,0 C -0,9 C -1,2 C -2,7 C 0,0 C 89 % 93 % 0 % 1031,1 hPa 0,0 l/m 0,0 km/h (0 Bft) O-NO 67 0 min 0,0 UV-I -2,0 C -2,7 C 0,0 km/h (0 Bft)
31.10.2009 08:00 -0,1 C 9,0 C -0,9 C -0,9 C -2,4 C 0,0 C 89 % 94 % 0 % 1030,8 hPa 0,0 l/m 0,0 km/h (0 Bft) W-SW 247 0 min 0,0 UV-I -1,7 C -2,4 C 0,0 km/h (0 Bft)
31.10.2009 08:07 -0,1 C 9,0 C -0,7 C -0,9 C -2,4 C 0,0 C 89 % 94 % 0 % 1030,8 hPa 0,0 l/m 0,0 km/h (0 Bft) W-SW 247 0 min 0,0 UV-I -1,7 C -2,4 C 0,0 km/h (0 Bft)
31.10.2009 08:08 -0,1 C 9,0 C -0,7 C -0,9 C -2,4 C 0,0 C 89 % 94 % 0 % 1030,8 hPa 0,0 l/m 0,0 km/h (0 Bft) W-SW 247 0 min 0,0 UV-I -1,7 C -2,4 C 0,0 km/h (0 Bft)
31.10.2009 08:09 -0,1 C 9,0 C -0,7 C -0,9 C -2,4 C 0,0 C 89 % 94 % 0 % 1030,8 hPa 0,0 l/m 0,0 km/h (0 Bft) W-SW 247 0 min 0,0 UV-I -1,7 C -2,4 C 0,0 km/h (0 Bft)
31.10.2009 08:10 0,1 C 9,0 C -0,7 C -0,7 C -2,4 C 0,0 C 89 % 94 % 0 % 1030,8 hPa 0,0 l/m 0,0 km/h (0 Bft) W-SW 247 0 min 0,0 UV-I -1,5 C -2,4 C 0,0 km/h (0 Bft)
31.10.2009 08:11 0,1 C 9,0 C -0,7 C -0,7 C -2,4 C 0,0 C 89 % 94 % 0 % 1030,8 hPa 0,0 l/m 0,0 km/h (0 Bft) W-SW 247 0 min 0,0 UV-I -1,5 C -2,4 C 0,0 km/h (0 Bft)
31.10.2009 08:13 0,1 C 9,0 C -0,7 C -0,7 C -2,4 C 0,0 C 89 % 94 % 0 % 1030,8 hPa 0,0 l/m 0,0 km/h (0 Bft) W-SW 247 0 min 0,0 UV-I -1,5 C -2,4 C 0,0 km/h (0 Bft)
31.10.2009 08:20 0,1 C 8,9 C -0,5 C -0,7 C -2,4 C 0,0 C 89 % 93 % 0 % 1030,8 hPa 0,0 l/m 0,0 km/h (0 Bft) NW 315 0 min 0,0 UV-I -1,5 C -2,4 C 0,0 km/h (0 Bft)
31.10.2009 08:25 0,1 C 8,9 C -0,5 C -0,7 C -2,3 C 0,0 C 89 % 93 % 0 % 1030,8 hPa 0,0 l/m 0,0 km/h (0 Bft) NW 315 0 min 0,0 UV-I -1,5 C -2,3 C 0,0 km/h (0 Bft)
31.10.2009 08:30 0,3 C 8,9 C -0,4 C -0,6 C -2,3 C 0,0 C 89 % 94 % 0 % 1030,8 hPa 0,0 l/m 0,0 km/h (0 Bft) NW 315 0 min 0,0 UV-I -1,3 C -2,3 C 0,0 km/h (0 Bft)
31.10.2009 08:35 0,3 C 8,9 C -0,3 C -0,5 C -2,1 C 0,0 C 89 % 94 % 0 % 1030,8 hPa 0,0 l/m 0,0 km/h (0 Bft) O-NO 67 0 min 0,0 UV-I -1,3 C -2,1 C 0,0 km/h (0 Bft)
31.10.2009 08:40 0,4 C 8,9 C -0,1 C -0,3 C -1,7 C 0,0 C 89 % 94 % 0 % 1030,8 hPa 0,0 l/m 0,0 km/h (0 Bft) W 270 0 min 0,0 UV-I -1,2 C -1,7 C 0,0 km/h (0 Bft)
31.10.2009 08:45 0,4 C 8,9 C -0,1 C -0,3 C -1,7 C 0,0 C 89 % 94 % 0 % 1030,8 hPa 0,0 l/m 0,0 km/h (0 Bft) NW 315 0 min 0,0 UV-I -1,2 C -1,7 C 0,0 km/h (0 Bft)
31.10.2009 08:50 0,7 C 8,9 C -0,1 C 0,0 C -1,4 C 0,0 C 90 % 94 % 0 % 1030,8 hPa 0,0 l/m 0,5 km/h (0 Bft) SW 225 0 min 0,0 UV-I -0,7 C -1,4 C 1,9 km/h (1 Bft)
31.10.2009 08:55 0,7 C 8,9 C 0,1 C 0,0 C -1,3 C 0,0 C 90 % 94 % 0 % 1030,8 hPa 0,0 l/m 0,6 km/h (0 Bft) W-SW 247 0 min 0,0 UV-I -0,7 C -1,3 C 0,0 km/h (0 Bft)
31.10.2009 09:00 0,9 C 8,9 C 0,2 C 0,2 C -1,1 C 0,0 C 90 % 94 % 0 % 1030,1 hPa 0,0 l/m 0,3 km/h (0 Bft) SW 225 0 min 0,0 UV-I -0,6 C -1,1 C 0,0 km/h (0 Bft)
31.10.2009 09:10 1,0 C 8,9 C 0,5 C 0,4 C -0,7 C 0,0 C 90 % 94 % 0 % 1030,1 hPa 0,0 l/m 0,6 km/h (0 Bft) W-SW 247 0 min 0,0 UV-I -0,5 C -0,7 C 1,9 km/h (1 Bft)
31.10.2009 09:15 1,1 C 8,9 C 0,5 C 0,6 C -0,4 C 0,0 C 90 % 95 % 0 % 1030,1 hPa 0,0 l/m 0,6 km/h (0 Bft) SW 225 0 min 0,0 UV-I -0,4 C -0,4 C 0,0 km/h (0 Bft)
31.10.2009 09:20 1,3 C 8,8 C 0,7 C 0,8 C -0,3 C 0,0 C 90 % 95 % 0 % 1030,4 hPa 0,0 l/m 0,0 km/h (0 Bft) SW 225 0 min 0,0 UV-I -0,2 C -0,3 C 0,0 km/h (0 Bft)
31.10.2009 09:25 1,2 C 8,8 C 0,8 C 0,7 C -0,2 C 0,0 C 90 % 95 % 0 % 1030,4 hPa 0,0 l/m 0,0 km/h (0 Bft) W-SW 247 0 min 0,0 UV-I -0,3 C -0,2 C 0,0 km/h (0 Bft)
31.10.2009 09:30 1,5 C 8,8 C 0,9 C 1,0 C 0,1 C 0,0 C 90 % 94 % 0 % 1030,4 hPa 0,0 l/m 0,0 km/h (0 Bft) W-SW 247 0 min 0,0 UV-I 0,0 C 0,1 C 0,0 km/h (0 Bft)
31.10.2009 09:35 1,5 C 8,8 C 1,0 C 1,1 C 0,2 C 0,0 C 90 % 94 % 0 % 1030,4 hPa 0,0 l/m 0,0 km/h (0 Bft) W-SW 247 0 min 0,0 UV-I 0,0 C 0,2 C 0,0 km/h (0 Bft)
31.10.2009 09:40 1,7 C 8,8 C 1,1 C 1,2 C 0,3 C 0,0 C 90 % 94 % 0 % 1030,9 hPa 0,0 l/m 0,2 km/h (0 Bft) SW 225 0 min 0,0 UV-I 0,2 C 0,3 C 2,1 km/h (1 Bft)
31.10.2009 09:45 1,8 C 8,7 C 1,3 C 1,3 C 0,3 C 0,0 C 90 % 94 % 0 % 1030,9 hPa 0,0 l/m 0,8 km/h (0 Bft) S-SW 202 0 min 0,0 UV-I 0,3 C 0,3 C 2,3 km/h (1 Bft)
31.10.2009 09:50 2,0 C 8,6 C 1,5 C 1,5 C 0,4 C 0,0 C 90 % 94 % 0 % 1030,9 hPa 0,0 l/m 1,8 km/h (1 Bft) S-SW 202 0 min 0,0 UV-I 0,5 C 0,4 C 2,3 km/h (1 Bft)
31.10.2009 09:55 2,1 C 8,6 C 1,7 C 1,6 C 0,5 C 0,0 C 90 % 94 % 0 % 1030,9 hPa 0,0 l/m 1,1 km/h (1 Bft) SW 225 0 min 0,1 UV-I 0,6 C 0,5 C 0,0 km/h (0 Bft)
31.10.2009 10:00 2,3 C 8,5 C 1,9 C 1,8 C 0,7 C 0,0 C 90 % 94 % 0 % 1030,4 hPa 0,0 l/m 0,6 km/h (0 Bft) SW 225 0 min 0,1 UV-I 0,8 C 0,7 C 2,1 km/h (1 Bft)
31.10.2009 10:10 2,4 C 8,4 C 2,1 C 2,0 C 1,1 C 0,0 C 90 % 93 % 0 % 1030,4 hPa 0,0 l/m 2,3 km/h (1 Bft) SW 225 0 min 0,1 UV-I 0,9 C 1,1 C 1,9 km/h (1 Bft)
31.10.2009 10:15 2,6 C 8,4 C 2,3 C 2,2 C 1,5 C 0,0 C 89 % 93 % 0 % 1030,4 hPa 0,0 l/m 1,4 km/h (1 Bft) SW 225 0 min 0,1 UV-I 1,0 C 1,5 C 0,0 km/h (0 Bft)
31.10.2009 10:20 2,8 C 8,3 C 2,4 C 2,5 C 1,9 C 0,0 C 89 % 93 % 0 % 1030,5 hPa 0,0 l/m 1,1 km/h (1 Bft) W-SW 247 0 min 0,1 UV-I 1,2 C 1,9 C 2,4 km/h (1 Bft)
31.10.2009 10:25 2,8 C 8,3 C 2,7 C 2,6 C 2,2 C 0,0 C 89 % 93 % 0 % 1030,5 hPa 0,0 l/m 1,3 km/h (1 Bft) S-SW 202 0 min 0,2 UV-I 1,2 C 2,2 C 2,4 km/h (1 Bft)
31.10.2009 10:30 3,1 C 8,3 C 2,8 C 2,9 C 2,5 C 0,0 C 89 % 92 % 0 % 1030,5 hPa 0,0 l/m 1,3 km/h (1 Bft) W-SW 247 0 min 0,2 UV-I 1,5 C 2,5 C 2,9 km/h (1 Bft)
31.10.2009 10:35 3,1 C 8,3 C 2,9 C 3,0 C 2,8 C 0,0 C 88 % 91 % 0 % 1030,5 hPa 0,0 l/m 1,6 km/h (1 Bft) SW 225 0 min 0,2 UV-I 1,3 C 2,8 C 3,2 km/h (1 Bft)
31.10.2009 10:40 3,2 C 8,3 C 3,2 C 3,5 C 3,5 C 0,3 C 88 % 91 % 8 % 1030,8 hPa 0,0 l/m 2,1 km/h (1 Bft) SW 225 0 min 0,3 UV-I 1,4 C 3,5 C 2,1 km/h (1 Bft)
31.10.2009 10:45 3,3 C 8,3 C 3,3 C 3,7 C 3,7 C 0,4 C 88 % 91 % 11 % 1030,8 hPa 0,0 l/m 2,3 km/h (1 Bft) SW 225 0 min 0,3 UV-I 1,5 C 3,7 C 1,8 km/h (1 Bft)
31.10.2009 10:50 3,5 C 8,3 C 3,3 C 4,4 C 4,4 C 0,9 C 88 % 91 % 24 % 1030,8 hPa 0,0 l/m 2,4 km/h (1 Bft) SO 135 0 min 0,3 UV-I 1,7 C 4,4 C 0,0 km/h (0 Bft)
31.10.2009 10:55 3,5 C 8,3 C 3,5 C 4,8 C 4,8 C 1,3 C 88 % 91 % 34 % 1030,8 hPa 0,0 l/m 1,8 km/h (1 Bft) SW 225 0 min 0,3 UV-I 1,7 C 4,8 C 2,7 km/h (1 Bft)
31.10.2009 11:00 3,6 C 8,2 C 3,7 C 5,2 C 5,2 C 1,6 C 87 % 90 % 42 % 1030,8 hPa 0,0 l/m 0,8 km/h (0 Bft) S 180 0 min 0,2 UV-I 1,6 C 5,2 C 0,0 km/h (0 Bft)
31.10.2009 11:06 3,7 C 8,2 C 3,7 C 5,5 C 5,5 C 1,8 C 88 % 90 % 47 % 1030,8 hPa 0,0 l/m 0,8 km/h (0 Bft) W-SW 247 0 min 0,2 UV-I 1,9 C 5,5 C 3,2 km/h (1 Bft)
31.10.2009 11:07 3,7 C 8,2 C 3,7 C 5,5 C 5,5 C 1,8 C 88 % 90 % 47 % 1030,8 hPa 0,0 l/m 0,8 km/h (0 Bft) W-SW 247 0 min 0,2 UV-I 1,9 C 5,5 C 3,2 km/h (1 Bft)
31.10.2009 11:10 3,9 C 8,2 C 3,8 C 6,1 C 6,1 C 2,2 C 87 % 90 % 58 % 1030,8 hPa 0,0 l/m 0,6 km/h (0 Bft) S 180 0 min 0,2 UV-I 1,9 C 6,1 C 0,0 km/h (0 Bft)
31.10.2009 11:15 4,0 C 8,2 C 3,9 C 6,3 C 6,3 C 2,3 C 87 % 90 % 61 % 1030,8 hPa 0,0 l/m 0,6 km/h (0 Bft) SW 225 0 min 0,2 UV-I 2,0 C 6,3 C 1,9 km/h (1 Bft)
31.10.2009 11:20 4,1 C 8,2 C 4,0 C 6,8 C 6,8 C 2,7 C 87 % 90 % 71 % 1030,4 hPa 0,0 l/m 1,1 km/h (1 Bft) SW 225 0 min 0,3 UV-I 2,1 C 6,8 C 3,7 km/h (1 Bft)
31.10.2009 11:25 4,3 C 8,2 C 4,2 C 7,5 C 7,5 C 3,2 C 86 % 89 % 84 % 1030,4 hPa 0,0 l/m 2,3 km/h (1 Bft) SW 225 0 min 0,3 UV-I 2,2 C 7,5 C 3,9 km/h (1 Bft)
31.10.2009 11:30 4,5 C 8,2 C 4,4 C 8,7 C 8,7 C 4,2 C 86 % 88 % 100 % 1030,4 hPa 0,0 l/m 2,7 km/h (1 Bft) NW 315 5 min 0,3 UV-I 2,4 C 8,7 C 3,4 km/h (1 Bft)
31.10.2009 11:35 4,5 C 8,2 C 4,4 C 9,7 C 9,7 C 5,2 C 85 % 88 % 100 % 1030,4 hPa 0,0 l/m 1,9 km/h (1 Bft) N-NW 337 5 min 0,3 UV-I 2,2 C 9,7 C 0,0 km/h (0 Bft)
31.10.2009 11:40 4,8 C 8,2 C 4,7 C 10,6 C 10,6 C 5,8 C 84 % 87 % 100 % 1029,8 hPa 0,0 l/m 0,8 km/h (0 Bft) O-NO 67 5 min 0,3 UV-I 2,3 C 10,6 C 0,0 km/h (0 Bft)
31.10.2009 11:45 4,9 C 8,2 C 4,8 C 11,1 C 11,1 C 6,2 C 84 % 87 % 100 % 1029,8 hPa 0,0 l/m 0,6 km/h (0 Bft) N-NO 22 5 min 0,3 UV-I 2,4 C 11,1 C 2,9 km/h (1 Bft)
31.10.2009 11:50 4,9 C 8,2 C 4,9 C 10,9 C 10,9 C 6,0 C 84 % 87 % 100 % 1029,8 hPa 0,0 l/m 0,6 km/h (0 Bft) N-NO 22 5 min 0,3 UV-I 2,4 C 10,9 C 2,6 km/h (1 Bft)
31.10.2009 11:55 5,1 C 8,2 C 5,1 C 10,7 C 10,7 C 5,6 C 84 % 87 % 100 % 1029,8 hPa 0,0 l/m 0,8 km/h (0 Bft) W-SW 247 5 min 0,4 UV-I 2,6 C 10,7 C 0,0 km/h (0 Bft)
31.10.2009 12:00 5,1 C 8,2 C 5,1 C 11,1 C 11,1 C 6,0 C 84 % 86 % 100 % 1029,6 hPa 0,0 l/m 0,3 km/h (0 Bft) W 270 5 min 0,4 UV-I 2,6 C 11,1 C 0,0 km/h (0 Bft)
31.10.2009 12:07 5,1 C 8,2 C 5,0 C 11,0 C 11,0 C 5,9 C 84 % 86 % 100 % 1029,6 hPa 0,0 l/m 0,5 km/h (0 Bft) NW 315 7 min 0,4 UV-I 2,6 C 11,0 C 2,6 km/h (1 Bft)
31.10.2009 12:10 5,3 C 8,2 C 5,3 C 10,4 C 10,4 C 5,1 C 83 % 86 % 100 % 1029,6 hPa 0,0 l/m 0,3 km/h (0 Bft) S-SW 202 3 min 0,4 UV-I 2,7 C 10,4 C 0,0 km/h (0 Bft)
31.10.2009 12:15 5,5 C 8,2 C 5,5 C 10,5 C 10,5 C 5,0 C 83 % 86 % 100 % 1029,6 hPa 0,0 l/m 0,5 km/h (0 Bft) N-NO 22 5 min 0,4 UV-I 2,8 C 10,5 C 0,0 km/h (0 Bft)
31.10.2009 12:20 5,6 C 8,2 C 5,6 C 10,2 C 10,2 C 4,6 C 82 % 84 % 100 % 1029,4 hPa 0,0 l/m 1,0 km/h (0 Bft) S-SO 157 5 min 0,4 UV-I 2,8 C 10,2 C 0,0 km/h (0 Bft)
31.10.2009 12:25 5,7 C 8,2 C 5,7 C 10,1 C 10,1 C 4,4 C 82 % 84 % 100 % 1029,4 hPa 0,0 l/m 1,0 km/h (0 Bft) SW 225 5 min 0,4 UV-I 2,9 C 10,1 C 3,7 km/h (1 Bft)
31.10.2009 12:30 5,9 C 8,2 C 5,8 C 9,5 C 9,5 C 3,6 C 81 % 84 % 95 % 1029,4 hPa 0,0 l/m 1,4 km/h (1 Bft) W-SW 247 5 min 0,4 UV-I 2,9 C 9,5 C 2,4 km/h (1 Bft)
31.10.2009 12:35 5,9 C 8,2 C 6,0 C 8,9 C 8,9 C 3,0 C 81 % 83 % 79 % 1029,4 hPa 0,0 l/m 1,9 km/h (1 Bft) N-NW 337 0 min 0,3 UV-I 2,9 C 8,9 C 2,6 km/h (1 Bft)
31.10.2009 12:40 6,1 C 8,2 C 6,1 C 8,3 C 8,3 C 2,2 C 81 % 83 % 58 % 1029,4 hPa 0,0 l/m 1,4 km/h (1 Bft) W-SW 247 0 min 0,3 UV-I 3,1 C 8,3 C 0,0 km/h (0 Bft)
31.10.2009 12:45 6,0 C 8,2 C 6,1 C 8,1 C 8,1 C 2,1 C 80 % 81 % 55 % 1029,4 hPa 0,0 l/m 1,8 km/h (1 Bft) NO 45 0 min 0,3 UV-I 2,8 C 8,1 C 3,4 km/h (1 Bft)
31.10.2009 12:50 6,3 C 8,2 C 6,3 C 7,9 C 7,9 C 1,6 C 80 % 82 % 42 % 1029,4 hPa 0,0 l/m 1,4 km/h (1 Bft) N-NW 337 0 min 0,3 UV-I 3,1 C 7,9 C 2,4 km/h (1 Bft)
31.10.2009 12:55 6,3 C 8,2 C 6,3 C 7,8 C 7,8 C 1,5 C 79 % 81 % 39 % 1029,4 hPa 0,0 l/m 1,1 km/h (1 Bft) O-NO 67 0 min 0,3 UV-I 2,9 C 7,8 C 3,4 km/h (1 Bft)
31.10.2009 13:00 6,4 C 8,2 C 6,4 C 7,7 C 7,7 C 1,3 C 79 % 81 % 34 % 1029,2 hPa 0,0 l/m 0,8 km/h (0 Bft) SO 135 0 min 0,3 UV-I 3,0 C 7,7 C 0,0 km/h (0 Bft)
31.10.2009 13:10 6,5 C 8,3 C 6,7 C 7,7 C 7,7 C 1,2 C 78 % 80 % 32 % 1029,2 hPa 0,0 l/m 1,4 km/h (1 Bft) N-NW 337 0 min 0,3 UV-I 2,9 C 7,7 C 3,5 km/h (1 Bft)
31.10.2009 13:15 6,6 C 8,3 C 6,6 C 7,7 C 7,7 C 1,1 C 76 % 79 % 29 % 1029,2 hPa 0,0 l/m 1,8 km/h (1 Bft) N-NW 337 0 min 0,3 UV-I 2,7 C 7,7 C 5,3 km/h (1 Bft)
31.10.2009 13:20 6,8 C 8,3 C 6,8 C 7,8 C 7,8 C 1,0 C 73 % 76 % 26 % 1029,2 hPa 0,0 l/m 2,6 km/h (1 Bft) O-NO 67 0 min 0,3 UV-I 2,3 C 7,8 C 3,7 km/h (1 Bft)
31.10.2009 13:25 6,8 C 8,3 C 6,7 C 7,7 C 7,7 C 0,9 C 74 % 77 % 24 % 1029,2 hPa 0,0 l/m 2,4 km/h (1 Bft) O-NO 67 0 min 0,2 UV-I 2,5 C 7,7 C 6,1 km/h (2 Bft)
31.10.2009 13:30 6,8 C 8,3 C 6,8 C 7,7 C 7,7 C 0,9 C 70 % 74 % 24 % 1029,2 hPa 0,0 l/m 3,2 km/h (1 Bft) NO 45 0 min 0,2 UV-I 1,7 C 7,7 C 4,7 km/h (1 Bft)
31.10.2009 13:35 6,9 C 8,3 C 6,7 C 7,7 C 7,7 C 0,8 C 70 % 73 % 21 % 1029,2 hPa 0,0 l/m 3,2 km/h (1 Bft) O 90 0 min 0,2 UV-I 1,8 C 7,7 C 7,2 km/h (2 Bft)
31.10.2009 13:40 7,1 C 8,3 C 6,8 C 8,0 C 8,0 C 0,9 C 70 % 72 % 24 % 1028,9 hPa 0,0 l/m 3,7 km/h (1 Bft) O-NO 67 0 min 0,2 UV-I 2,0 C 8,0 C 3,4 km/h (1 Bft)
31.10.2009 13:45 7,1 C 8,2 C 6,9 C 8,2 C 8,2 C 1,1 C 68 % 71 % 29 % 1028,9 hPa 0,0 l/m 3,9 km/h (1 Bft) O 90 0 min 0,2 UV-I 1,6 C 8,2 C 7,7 km/h (2 Bft)
31.10.2009 13:50 7,1 C 8,2 C 6,9 C 8,1 C 8,1 C 1,0 C 69 % 71 % 26 % 1028,9 hPa 0,0 l/m 3,5 km/h (1 Bft) O-NO 67 0 min 0,2 UV-I 1,8 C 8,1 C 3,9 km/h (1 Bft)
31.10.2009 13:55 7,0 C 8,2 C 7,1 C 8,1 C 8,1 C 1,1 C 70 % 73 % 29 % 1028,9 hPa 0,0 l/m 3,4 km/h (1 Bft) O-NO 67 0 min 0,1 UV-I 1,9 C 8,1 C 8,0 km/h (2 Bft)
31.10.2009 14:00 7,1 C 8,2 C 7,5 C 8,5 C 8,5 C 1,4 C 70 % 71 % 37 % 1028,7 hPa 0,0 l/m 3,4 km/h (1 Bft) O-NO 67 0 min 0,1 UV-I 2,0 C 8,5 C 2,3 km/h (1 Bft)
31.10.2009 14:10 7,0 C 8,3 C 7,9 C 8,6 C 8,6 C 1,6 C 70 % 71 % 42 % 1028,7 hPa 0,0 l/m 2,6 km/h (1 Bft) O-NO 67 0 min 0,1 UV-I 1,9 C 8,6 C 2,3 km/h (1 Bft)
31.10.2009 14:15 7,0 C 8,2 C 8,1 C 8,8 C 8,8 C 1,8 C 70 % 69 % 47 % 1028,7 hPa 0,0 l/m 2,9 km/h (1 Bft) O-NO 67 0 min 0,1 UV-I 1,9 C 8,8 C 1,6 km/h (1 Bft)
31.10.2009 14:20 7,1 C 8,3 C 8,4 C 8,9 C 8,9 C 1,8 C 69 % 67 % 47 % 1029,1 hPa 0,0 l/m 3,1 km/h (1 Bft) O-NO 67 0 min 0,1 UV-I 1,8 C 8,9 C 3,1 km/h (1 Bft)
31.10.2009 14:25 7,1 C 8,3 C 8,7 C 8,8 C 8,8 C 1,7 C 69 % 68 % 45 % 1029,1 hPa 0,0 l/m 3,2 km/h (1 Bft) O-NO 67 0 min 0,0 UV-I 1,8 C 8,8 C 1,9 km/h (1 Bft)
31.10.2009 14:30 7,1 C 8,4 C 8,9 C 9,3 C 9,3 C 2,2 C 70 % 67 % 58 % 1029,1 hPa 0,0 l/m 2,9 km/h (1 Bft) O-NO 67 0 min 0,0 UV-I 2,0 C 9,3 C 4,7 km/h (1 Bft)
31.10.2009 14:35 7,1 C 8,4 C 8,8 C 9,3 C 9,3 C 2,2 C 69 % 67 % 58 % 1029,1 hPa 0,0 l/m 2,7 km/h (1 Bft) O-NO 67 0 min 0,0 UV-I 1,8 C 9,3 C 4,3 km/h (1 Bft)
31.10.2009 14:40 7,1 C 8,4 C 8,7 C 9,1 C 9,1 C 2,0 C 70 % 68 % 53 % 1028,2 hPa 0,0 l/m 2,7 km/h (1 Bft) NO 45 0 min 0,0 UV-I 2,0 C 9,1 C 2,3 km/h (1 Bft)
31.10.2009 14:45 7,1 C 8,4 C 8,4 C 9,1 C 9,1 C 2,0 C 71 % 69 % 53 % 1028,2 hPa 0,0 l/m 2,3 km/h (1 Bft) NO 45 0 min 0,0 UV-I 2,2 C 9,1 C 2,9 km/h (1 Bft)
31.10.2009 14:50 7,1 C 8,4 C 8,0 C 9,3 C 9,3 C 2,2 C 70 % 69 % 58 % 1028,2 hPa 0,0 l/m 1,9 km/h (1 Bft) O-NO 67 0 min 0,0 UV-I 2,0 C 9,3 C 1,8 km/h (1 Bft)
31.10.2009 14:55 7,1 C 8,4 C 7,9 C 9,6 C 9,6 C 2,5 C 70 % 69 % 66 % 1028,2 hPa 0,0 l/m 2,4 km/h (1 Bft) O-NO 67 0 min 0,0 UV-I 2,0 C 9,6 C 2,1 km/h (1 Bft)
31.10.2009 15:01 7,1 C 8,4 C 7,7 C 9,7 C 9,7 C 2,6 C 71 % 71 % 68 % 1028,2 hPa 0,0 l/m 2,1 km/h (1 Bft) O-NO 67 0 min 0,0 UV-I 2,2 C 9,7 C 2,6 km/h (1 Bft)
31.10.2009 15:02 7,1 C 8,4 C 7,7 C 9,7 C 9,7 C 2,6 C 71 % 71 % 68 % 1028,2 hPa 0,0 l/m 2,1 km/h (1 Bft) N 0 0 min 0,0 UV-I 2,2 C 9,7 C 2,6 km/h (1 Bft)
31.10.2009 15:10 7,3 C 8,4 C 7,5 C 9,4 C 9,4 C 2,1 C 70 % 71 % 55 % 1028,2 hPa 0,0 l/m 1,6 km/h (1 Bft) O-NO 67 0 min 0,0 UV-I 2,2 C 9,4 C 4,8 km/h (1 Bft)
31.10.2009 15:17 7,3 C 8,4 C 7,5 C 9,5 C 9,5 C 2,2 C 71 % 71 % 58 % 1028,2 hPa 0,0 l/m 2,4 km/h (1 Bft) NO 45 0 min 0,0 UV-I 2,4 C 9,5 C 4,2 km/h (1 Bft)
31.10.2009 15:18 7,3 C 8,4 C 7,5 C 9,5 C 9,5 C 2,2 C 71 % 71 % 58 % 1028,2 hPa 0,0 l/m 2,4 km/h (1 Bft) NO 45 0 min 0,0 UV-I 2,4 C 9,5 C 4,2 km/h (1 Bft)
31.10.2009 15:19 7,3 C 8,4 C 7,5 C 9,5 C 9,5 C 2,2 C 71 % 71 % 58 % 1028,2 hPa 0,0 l/m 2,4 km/h (1 Bft) NO 45 0 min 0,0 UV-I 2,4 C 9,5 C 4,2 km/h (1 Bft)
31.10.2009 15:20 7,2 C 8,4 C 7,5 C 9,7 C 9,7 C 2,5 C 71 % 71 % 66 % 1028,2 hPa 0,0 l/m 3,1 km/h (1 Bft) O-NO 67 0 min 0,0 UV-I 2,3 C 9,7 C 5,0 km/h (1 Bft)
31.10.2009 15:21 7,2 C 8,4 C 7,5 C 9,7 C 9,7 C 2,5 C 71 % 71 % 66 % 1028,2 hPa 0,0 l/m 3,1 km/h (1 Bft) O-NO 67 0 min 0,0 UV-I 2,3 C 9,7 C 5,0 km/h (1 Bft)
31.10.2009 15:23 7,2 C 8,4 C 7,5 C 9,7 C 9,7 C 2,5 C 71 % 71 % 66 % 1028,2 hPa 0,0 l/m 3,1 km/h (1 Bft) O-NO 67 0 min 0,0 UV-I 2,3 C 9,7 C 5,0 km/h (1 Bft)
31.10.2009 15:34 7,2 C 8,4 C 7,3 C 9,0 C 9,0 C 1,8 C 70 % 72 % 47 % 1028,2 hPa 0,0 l/m 3,7 km/h (1 Bft) O-NO 67 11 min 0,0 UV-I 2,1 C 9,0 C 4,2 km/h (1 Bft)
31.10.2009 15:35 7,4 C 8,5 C 7,3 C 9,1 C 9,1 C 1,7 C 71 % 72 % 45 % 1028,2 hPa 0,0 l/m 2,9 km/h (1 Bft) O-NO 67 1 min 0,0 UV-I 2,5 C 9,1 C 2,1 km/h (1 Bft)
31.10.2009 15:36 7,4 C 8,5 C 7,3 C 9,1 C 9,1 C 1,7 C 71 % 72 % 45 % 1028,2 hPa 0,0 l/m 2,9 km/h (1 Bft) O-NO 67 1 min 0,0 UV-I 2,5 C 9,1 C 2,1 km/h (1 Bft)
31.10.2009 15:37 7,4 C 8,5 C 7,3 C 9,1 C 9,1 C 1,7 C 71 % 72 % 45 % 1028,2 hPa 0,0 l/m 2,9 km/h (1 Bft) O-NO 67 1 min 0,0 UV-I 2,5 C 9,1 C 2,1 km/h (1 Bft)
31.10.2009 15:38 7,4 C 8,5 C 7,3 C 9,1 C 9,1 C 1,7 C 71 % 72 % 45 % 1028,2 hPa 0,0 l/m 2,9 km/h (1 Bft) O-NO 67 1 min 0,0 UV-I 2,5 C 9,1 C 2,1 km/h (1 Bft)
31.10.2009 15:40 7,2 C 8,5 C 7,1 C 9,1 C 9,1 C 1,9 C 74 % 75 % 50 % 1028,2 hPa 0,0 l/m 2,4 km/h (1 Bft) O-NO 67 2 min 0,0 UV-I 2,9 C 9,1 C 3,4 km/h (1 Bft)
31.10.2009 15:45 7,1 C 8,5 C 7,1 C 8,8 C 8,8 C 1,7 C 75 % 76 % 45 % 1028,2 hPa 0,0 l/m 3,1 km/h (1 Bft) O-NO 67 5 min 0,0 UV-I 3,0 C 8,8 C 4,5 km/h (1 Bft)
31.10.2009 15:50 6,9 C 8,5 C 6,8 C 8,1 C 8,1 C 1,2 C 75 % 77 % 32 % 1028,2 hPa 0,0 l/m 3,4 km/h (1 Bft) O-NO 67 5 min 0,0 UV-I 2,8 C 8,1 C 2,3 km/h (1 Bft)
31.10.2009 15:55 6,8 C 8,5 C 6,7 C 7,5 C 7,5 C 0,7 C 76 % 77 % 18 % 1028,2 hPa 0,0 l/m 2,4 km/h (1 Bft) O-NO 67 0 min 0,0 UV-I 2,9 C 7,5 C 0,0 km/h (0 Bft)
31.10.2009 16:00 6,7 C 8,5 C 6,5 C 6,8 C 6,8 C 0,1 C 76 % 78 % 3 % 1028,3 hPa 0,0 l/m 0,5 km/h (0 Bft) N 360 0 min 0,0 UV-I 2,8 C 6,8 C 0,0 km/h (0 Bft)
31.10.2009 16:05 6,7 C 8,5 C 6,4 C 6,6 C 6,3 C 0,0 C 77 % 79 % 0 % 1028,3 hPa 0,0 l/m 0,0 km/h (0 Bft) N-NO 22 0 min 0,0 UV-I 3,0 C 6,3 C 0,0 km/h (0 Bft)
31.10.2009 16:10 6,5 C 8,5 C 6,1 C 6,3 C 5,9 C 0,0 C 78 % 80 % 0 % 1028,3 hPa 0,0 l/m 1,0 km/h (0 Bft) O-NO 67 0 min 0,0 UV-I 2,9 C 5,9 C 2,3 km/h (1 Bft)
31.10.2009 16:15 6,4 C 8,5 C 6,1 C 6,2 C 5,7 C 0,0 C 78 % 80 % 0 % 1028,3 hPa 0,0 l/m 1,4 km/h (1 Bft) O-NO 67 0 min 0,0 UV-I 2,8 C 5,7 C 1,8 km/h (1 Bft)
31.10.2009 16:20 6,3 C 8,5 C 6,0 C 6,0 C 5,3 C 0,0 C 78 % 80 % 0 % 1028,2 hPa 0,0 l/m 0,6 km/h (0 Bft) O-NO 67 0 min 0,0 UV-I 2,8 C 5,3 C 0,0 km/h (0 Bft)
31.10.2009 16:25 6,1 C 8,5 C 5,7 C 5,7 C 5,0 C 0,0 C 78 % 81 % 0 % 1028,2 hPa 0,0 l/m 0,2 km/h (0 Bft) O-NO 67 0 min 0,0 UV-I 2,6 C 5,0 C 0,0 km/h (0 Bft)
31.10.2009 16:30 5,8 C 8,5 C 5,4 C 5,3 C 4,4 C 0,0 C 79 % 81 % 0 % 1028,2 hPa 0,0 l/m 0,0 km/h (0 Bft) O-NO 67 0 min 0,0 UV-I 2,4 C 4,4 C 0,0 km/h (0 Bft)
31.10.2009 16:35 5,8 C 8,5 C 5,3 C 5,2 C 4,1 C 0,0 C 80 % 82 % 0 % 1028,2 hPa 0,0 l/m 0,0 km/h (0 Bft) O-NO 67 0 min 0,0 UV-I 2,6 C 4,1 C 0,0 km/h (0 Bft)
31.10.2009 16:40 5,6 C 8,6 C 5,1 C 4,9 C 3,5 C 0,0 C 81 % 83 % 0 % 1028,2 hPa 0,0 l/m 0,0 km/h (0 Bft) O-NO 67 0 min 0,0 UV-I 2,6 C 3,5 C 0,0 km/h (0 Bft)
31.10.2009 16:45 5,6 C 8,6 C 5,1 C 4,8 C 3,2 C 0,0 C 81 % 84 % 0 % 1028,2 hPa 0,0 l/m 0,0 km/h (0 Bft) NW 315 0 min 0,0 UV-I 2,6 C 3,2 C 0,0 km/h (0 Bft)
31.10.2009 16:50 5,5 C 8,7 C 4,9 C 4,6 C 2,9 C 0,0 C 81 % 84 % 0 % 1028,2 hPa 0,0 l/m 0,0 km/h (0 Bft) NO 45 0 min 0,0 UV-I 2,5 C 2,9 C 0,0 km/h (0 Bft)
31.10.2009 16:55 5,3 C 8,7 C 4,7 C 4,5 C 2,8 C 0,0 C 81 % 84 % 0 % 1028,2 hPa 0,0 l/m 0,0 km/h (0 Bft) O-NO 67 0 min 0,0 UV-I 2,3 C 2,8 C 0,0 km/h (0 Bft)
31.10.2009 17:00 5,2 C 8,7 C 4,4 C 4,4 C 2,8 C 0,0 C 81 % 84 % 0 % 1028,4 hPa 0,0 l/m 0,0 km/h (0 Bft) O-NO 67 0 min 0,0 UV-I 2,2 C 2,8 C 0,0 km/h (0 Bft)
31.10.2009 17:10 4,9 C 8,7 C 4,3 C 4,1 C 2,5 C 0,0 C 82 % 86 % 0 % 1028,4 hPa 0,0 l/m 0,0 km/h (0 Bft) O-NO 67 0 min 0,0 UV-I 2,1 C 2,5 C 0,0 km/h (0 Bft)
31.10.2009 17:15 4,9 C 8,7 C 4,3 C 4,0 C 2,2 C 0,0 C 83 % 86 % 0 % 1028,4 hPa 0,0 l/m 0,0 km/h (0 Bft) O-NO 67 0 min 0,0 UV-I 2,3 C 2,2 C 0,0 km/h (0 Bft)
31.10.2009 17:20 4,7 C 8,8 C 3,9 C 3,8 C 2,1 C 0,0 C 83 % 86 % 0 % 1028,3 hPa 0,0 l/m 0,0 km/h (0 Bft) O-NO 67 0 min 0,0 UV-I 2,1 C 2,1 C 0,0 km/h (0 Bft)
31.10.2009 17:25 4,4 C 8,9 C 3,8 C 3,6 C 2,1 C 0,0 C 83 % 86 % 0 % 1028,3 hPa 0,0 l/m 0,0 km/h (0 Bft) O-NO 67 0 min 0,0 UV-I 1,8 C 2,1 C 0,0 km/h (0 Bft)
31.10.2009 17:30 4,3 C 8,8 C 3,6 C 3,6 C 2,1 C 0,0 C 83 % 87 % 0 % 1028,3 hPa 0,0 l/m 0,0 km/h (0 Bft) O-NO 67 0 min 0,0 UV-I 1,7 C 2,1 C 0,0 km/h (0 Bft)
31.10.2009 17:35 4,3 C 8,9 C 3,6 C 3,5 C 2,0 C 0,0 C 84 % 87 % 0 % 1028,3 hPa 0,0 l/m 0,0 km/h (0 Bft) O-NO 67 0 min 0,0 UV-I 1,8 C 2,0 C 0,0 km/h (0 Bft)
31.10.2009 17:40 4,1 C 8,9 C 3,5 C 3,3 C 1,7 C 0,0 C 84 % 87 % 0 % 1027,9 hPa 0,0 l/m 0,0 km/h (0 Bft) O-NO 67 0 min 0,0 UV-I 1,6 C 1,7 C 0,0 km/h (0 Bft)
31.10.2009 17:45 4,1 C 8,8 C 3,5 C 3,2 C 1,4 C 0,0 C 84 % 88 % 0 % 1027,9 hPa 0,0 l/m 0,0 km/h (0 Bft) O-NO 67 0 min 0,0 UV-I 1,6 C 1,4 C 0,0 km/h (0 Bft)
31.10.2009 17:50 4,0 C 8,9 C 3,5 C 3,0 C 1,0 C 0,0 C 85 % 88 % 0 % 1027,9 hPa 0,0 l/m 0,0 km/h (0 Bft) O-NO 67 0 min 0,0 UV-I 1,7 C 1,0 C 0,0 km/h (0 Bft)
31.10.2009 17:55 3,9 C 8,9 C 3,3 C 2,9 C 1,0 C 0,0 C 85 % 88 % 0 % 1027,9 hPa 0,0 l/m 0,0 km/h (0 Bft) O-NO 67 0 min 0,0 UV-I 1,6 C 1,0 C 0,0 km/h (0 Bft)
31.10.2009 18:00 3,6 C 8,9 C 2,9 C 2,7 C 1,0 C 0,0 C 85 % 88 % 0 % 1027,9 hPa 0,0 l/m 0,0 km/h (0 Bft) O-NO 67 0 min 0,0 UV-I 1,3 C 1,0 C 0,0 km/h (0 Bft)
31.10.2009 18:10 3,6 C 9,0 C 2,9 C 2,6 C 0,7 C 0,0 C 86 % 89 % 0 % 1027,9 hPa 0,0 l/m 0,0 km/h (0 Bft) S 180 0 min 0,0 UV-I 1,5 C 0,7 C 0,0 km/h (0 Bft)
31.10.2009 18:15 3,6 C 9,0 C 2,8 C 2,6 C 0,5 C 0,0 C 85 % 89 % 0 % 1027,9 hPa 0,0 l/m 0,0 km/h (0 Bft) S 180 0 min 0,0 UV-I 1,3 C 0,5 C 0,0 km/h (0 Bft)
31.10.2009 18:20 3,5 C 8,9 C 2,7 C 2,5 C 0,4 C 0,0 C 85 % 89 % 0 % 1028,2 hPa 0,0 l/m 0,0 km/h (0 Bft) S 180 0 min 0,0 UV-I 1,2 C 0,4 C 0,0 km/h (0 Bft)
31.10.2009 18:25 3,2 C 8,9 C 2,5 C 2,2 C 0,3 C 0,0 C 85 % 89 % 0 % 1028,2 hPa 0,0 l/m 0,0 km/h (0 Bft) S 180 0 min 0,0 UV-I 0,9 C 0,3 C 0,0 km/h (0 Bft)
31.10.2009 18:30 3,2 C 8,8 C 2,4 C 2,1 C 0,0 C 0,0 C 85 % 89 % 0 % 1028,2 hPa 0,0 l/m 0,0 km/h (0 Bft) S 180 0 min 0,0 UV-I 0,9 C 0,0 C 0,0 km/h (0 Bft)
31.10.2009 18:35 3,2 C 8,8 C 2,4 C 2,1 C -0,2 C 0,0 C 86 % 90 % 0 % 1028,2 hPa 0,0 l/m 0,2 km/h (0 Bft) SW 225 0 min 0,0 UV-I 1,1 C -0,2 C 1,8 km/h (1 Bft)
31.10.2009 18:40 3,2 C 9,0 C 2,4 C 2,1 C 0,0 C 0,0 C 86 % 90 % 0 % 1028,3 hPa 0,0 l/m 0,5 km/h (0 Bft) W-SW 247 0 min 0,0 UV-I 1,1 C 0,0 C 0,0 km/h (0 Bft)
31.10.2009 18:45 3,2 C 9,0 C 2,3 C 2,1 C 0,0 C 0,0 C 86 % 90 % 0 % 1028,3 hPa 0,0 l/m 0,5 km/h (0 Bft) N-NO 22 0 min 0,0 UV-I 1,1 C 0,0 C 0,0 km/h (0 Bft)
31.10.2009 18:50 2,8 C 9,0 C 2,0 C 1,8 C -0,1 C 0,0 C 86 % 90 % 0 % 1028,3 hPa 0,0 l/m 0,0 km/h (0 Bft) O-NO 67 0 min 0,0 UV-I 0,7 C -0,1 C 0,0 km/h (0 Bft)
31.10.2009 18:55 2,7 C 9,1 C 1,8 C 1,7 C -0,2 C 0,0 C 86 % 90 % 0 % 1028,3 hPa 0,0 l/m 0,0 km/h (0 Bft) O-NO 67 0 min 0,0 UV-I 0,6 C -0,2 C 0,0 km/h (0 Bft)
31.10.2009 19:00 2,7 C 9,1 C 1,7 C 1,7 C -0,4 C 0,0 C 86 % 90 % 0 % 1027,8 hPa 0,0 l/m 0,0 km/h (0 Bft) O-NO 67 0 min 0,0 UV-I 0,6 C -0,4 C 0,0 km/h (0 Bft)
31.10.2009 19:07 2,5 C 9,1 C 1,6 C 1,5 C -0,4 C 0,0 C 87 % 90 % 0 % 1027,8 hPa 0,0 l/m 0,0 km/h (0 Bft) O-NO 67 0 min 0,0 UV-I 0,6 C -0,4 C 0,0 km/h (0 Bft)
31.10.2009 19:08 2,5 C 9,1 C 1,6 C 1,5 C -0,4 C 0,0 C 87 % 90 % 0 % 1027,8 hPa 0,0 l/m 0,0 km/h (0 Bft) O-NO 67 0 min 0,0 UV-I 0,6 C -0,4 C 0,0 km/h (0 Bft)
31.10.2009 19:10 2,4 C 9,0 C 1,6 C 1,5 C -0,3 C 0,0 C 87 % 90 % 0 % 1027,8 hPa 0,0 l/m 0,0 km/h (0 Bft) O-NO 67 0 min 0,0 UV-I 0,5 C -0,3 C 0,0 km/h (0 Bft)
31.10.2009 19:15 2,4 C 9,1 C 1,5 C 1,5 C -0,4 C 0,0 C 87 % 91 % 0 % 1027,8 hPa 0,0 l/m 0,0 km/h (0 Bft) O-NO 67 0 min 0,0 UV-I 0,5 C -0,4 C 0,0 km/h (0 Bft)
31.10.2009 19:20 2,4 C 9,0 C 1,5 C 1,4 C -0,7 C 0,0 C 87 % 91 % 0 % 1028,1 hPa 0,0 l/m 0,0 km/h (0 Bft) O-NO 67 0 min 0,0 UV-I 0,5 C -0,7 C 0,0 km/h (0 Bft)
31.10.2009 19:25 2,3 C 9,0 C 1,5 C 1,2 C -1,0 C 0,0 C 87 % 91 % 0 % 1028,1 hPa 0,0 l/m 0,0 km/h (0 Bft) O-NO 67 0 min 0,0 UV-I 0,4 C -1,0 C 0,0 km/h (0 Bft)
31.10.2009 19:30 2,3 C 9,0 C 1,5 C 1,1 C -1,2 C 0,0 C 87 % 91 % 0 % 1028,1 hPa 0,0 l/m 0,0 km/h (0 Bft) O-NO 67 0 min 0,0 UV-I 0,4 C -1,2 C 0,0 km/h (0 Bft)
31.10.2009 19:35 2,2 C 9,0 C 1,3 C 1,0 C -1,4 C 0,0 C 86 % 91 % 0 % 1028,1 hPa 0,0 l/m 0,0 km/h (0 Bft) O-NO 67 0 min 0,0 UV-I 0,1 C -1,4 C 0,0 km/h (0 Bft)
31.10.2009 19:40 2,0 C 9,0 C 1,2 C 0,8 C -1,5 C 0,0 C 86 % 91 % 0 % 1028,0 hPa 0,0 l/m 0,0 km/h (0 Bft) O-NO 67 0 min 0,0 UV-I -0,1 C -1,5 C 0,0 km/h (0 Bft)
31.10.2009 19:45 2,1 C 9,0 C 1,2 C 0,9 C -1,6 C 0,0 C 86 % 91 % 0 % 1028,0 hPa 0,0 l/m 0,0 km/h (0 Bft) O-NO 67 0 min 0,0 UV-I 0,0 C -1,6 C 0,0 km/h (0 Bft)
31.10.2009 19:50 1,9 C 9,0 C 1,1 C 0,7 C -1,7 C 0,0 C 86 % 91 % 0 % 1028,0 hPa 0,0 l/m 0,0 km/h (0 Bft) O-NO 67 0 min 0,0 UV-I -0,2 C -1,7 C 0,0 km/h (0 Bft)
31.10.2009 19:55 1,8 C 9,0 C 0,9 C 0,7 C -1,6 C 0,0 C 87 % 91 % 0 % 1028,0 hPa 0,0 l/m 0,0 km/h (0 Bft) O-NO 67 0 min 0,0 UV-I -0,1 C -1,6 C 0,0 km/h (0 Bft)
31.10.2009 20:00 1,6 C 9,0 C 0,9 C 0,5 C -1,6 C 0,0 C 87 % 91 % 0 % 1028,0 hPa 0,0 l/m 0,0 km/h (0 Bft) O-NO 67 0 min 0,0 UV-I -0,3 C -1,6 C 0,0 km/h (0 Bft)
31.10.2009 20:05 1,7 C 9,0 C 0,9 C 0,6 C -1,7 C 0,0 C 87 % 91 % 0 % 1028,0 hPa 0,0 l/m 0,0 km/h (0 Bft) O-NO 67 0 min 0,0 UV-I -0,2 C -1,7 C 0,0 km/h (0 Bft)
31.10.2009 20:10 1,5 C 9,0 C 0,8 C 0,5 C -1,6 C 0,0 C 87 % 91 % 0 % 1028,0 hPa 0,0 l/m 0,0 km/h (0 Bft) O-NO 67 0 min 0,0 UV-I -0,4 C -1,6 C 0,0 km/h (0 Bft)
31.10.2009 20:12 1,5 C 9,0 C 0,8 C 0,5 C -1,6 C 0,0 C 87 % 91 % 0 % 1028,0 hPa 0,0 l/m 0,0 km/h (0 Bft) O-NO 67 0 min 0,0 UV-I -0,4 C -1,6 C 0,0 km/h (0 Bft)
31.10.2009 20:15 1,5 C 9,0 C 0,7 C 0,5 C -1,5 C 0,0 C 87 % 91 % 0 % 1028,0 hPa 0,0 l/m 0,0 km/h (0 Bft) O-NO 67 0 min 0,0 UV-I -0,4 C -1,5 C 0,0 km/h (0 Bft)
31.10.2009 20:17 1,5 C 9,0 C 0,7 C 0,5 C -1,5 C 0,0 C 87 % 91 % 0 % 1028,0 hPa 0,0 l/m 0,0 km/h (0 Bft) O-NO 67 0 min 0,0 UV-I -0,4 C -1,5 C 0,0 km/h (0 Bft)
31.10.2009 20:20 1,5 C 8,9 C 0,8 C 0,4 C -1,7 C 0,0 C 88 % 91 % 0 % 1028,5 hPa 0,0 l/m 0,0 km/h (0 Bft) O-NO 67 0 min 0,0 UV-I -0,3 C -1,7 C 0,0 km/h (0 Bft)
31.10.2009 20:25 1,5 C 9,0 C 0,7 C 0,4 C -1,9 C 0,0 C 88 % 91 % 0 % 1028,5 hPa 0,0 l/m 0,0 km/h (0 Bft) O-NO 67 0 min 0,0 UV-I -0,3 C -1,9 C 0,0 km/h (0 Bft)
31.10.2009 20:30 1,3 C 9,0 C 0,7 C 0,3 C -1,8 C 0,0 C 88 % 91 % 0 % 1028,5 hPa 0,0 l/m 0,0 km/h (0 Bft) O-NO 67 0 min 0,0 UV-I -0,5 C -1,8 C 0,0 km/h (0 Bft)
31.10.2009 20:35 1,2 C 8,9 C 0,5 C 0,2 C -1,7 C 0,0 C 88 % 91 % 0 % 1028,5 hPa 0,0 l/m 0,0 km/h (0 Bft) O-NO 67 0 min 0,0 UV-I -0,6 C -1,7 C 0,0 km/h (0 Bft)
31.10.2009 20:37 1,2 C 8,9 C 0,5 C 0,2 C -1,7 C 0,0 C 88 % 91 % 0 % 1028,5 hPa 0,0 l/m 0,0 km/h (0 Bft) O-NO 67 0 min 0,0 UV-I -0,6 C -1,7 C 0,0 km/h (0 Bft)
31.10.2009 20:40 1,5 C 8,9 C 0,7 C 0,4 C -1,8 C 0,0 C 88 % 92 % 0 % 1028,3 hPa 0,0 l/m 0,0 km/h (0 Bft) W-SW 247 0 min 0,0 UV-I -0,3 C -1,8 C 0,0 km/h (0 Bft)
31.10.2009 20:45 1,4 C 8,9 C 0,7 C 0,3 C -2,0 C 0,0 C 88 % 92 % 0 % 1028,3 hPa 0,0 l/m 0,0 km/h (0 Bft) W-SW 247 0 min 0,0 UV-I -0,4 C -2,0 C 0,0 km/h (0 Bft)
31.10.2009 20:50 1,5 C 8,9 C 0,7 C 0,3 C -2,1 C 0,0 C 88 % 92 % 0 % 1028,3 hPa 0,0 l/m 0,0 km/h (0 Bft) W-SW 247 0 min 0,0 UV-I -0,3 C -2,1 C 0,0 km/h (0 Bft)
31.10.2009 20:55 1,5 C 8,9 C 0,7 C 0,3 C -2,1 C 0,0 C 88 % 92 % 0 % 1028,3 hPa 0,0 l/m 0,0 km/h (0 Bft) SW 225 0 min 0,0 UV-I -0,3 C -2,1 C 0,0 km/h (0 Bft)
31.10.2009 21:00 1,2 C 8,9 C 0,4 C 0,1 C -2,0 C 0,0 C 87 % 91 % 0 % 1028,0 hPa 0,0 l/m 0,0 km/h (0 Bft) S-SW 202 0 min 0,0 UV-I -0,7 C -2,0 C 0,0 km/h (0 Bft)
31.10.2009 21:08 1,2 C 8,9 C 0,3 C 0,3 C -1,6 C 0,0 C 88 % 91 % 0 % 1028,0 hPa 0,0 l/m 0,0 km/h (0 Bft) O-NO 67 0 min 0,0 UV-I -0,6 C -1,6 C 0,0 km/h (0 Bft)
31.10.2009 21:09 1,2 C 8,9 C 0,3 C 0,3 C -1,6 C 0,0 C 88 % 91 % 0 % 1028,0 hPa 0,0 l/m 0,0 km/h (0 Bft) O-NO 67 0 min 0,0 UV-I -0,6 C -1,6 C 0,0 km/h (0 Bft)
31.10.2009 21:10 1,1 C 8,9 C 0,0 C 0,2 C -1,7 C 0,0 C 87 % 91 % 0 % 1028,0 hPa 0,0 l/m 0,0 km/h (0 Bft) O-NO 67 0 min 0,0 UV-I -0,8 C -1,7 C 0,0 km/h (0 Bft)
31.10.2009 21:15 0,8 C 8,9 C 0,1 C 0,0 C -1,7 C 0,0 C 87 % 92 % 0 % 1028,0 hPa 0,0 l/m 0,0 km/h (0 Bft) O-NO 67 0 min 0,0 UV-I -1,1 C -1,7 C 0,0 km/h (0 Bft)
31.10.2009 21:20 0,8 C 8,9 C -0,1 C 0,0 C -1,6 C 0,0 C 88 % 92 % 0 % 1028,0 hPa 0,0 l/m 0,0 km/h (0 Bft) N 360 0 min 0,0 UV-I -1,0 C -1,6 C 0,0 km/h (0 Bft)
31.10.2009 21:25 0,8 C 8,8 C -0,1 C 0,0 C -1,7 C 0,0 C 87 % 92 % 0 % 1028,0 hPa 0,0 l/m 0,0 km/h (0 Bft) O-NO 67 0 min 0,0 UV-I -1,1 C -1,7 C 0,0 km/h (0 Bft)
31.10.2009 21:30 0,8 C 8,8 C 0,1 C -0,1 C -1,9 C 0,0 C 88 % 93 % 0 % 1028,0 hPa 0,0 l/m 0,0 km/h (0 Bft) W-SW 247 0 min 0,0 UV-I -1,0 C -1,9 C 1,6 km/h (1 Bft)
31.10.2009 21:35 0,8 C 8,8 C 0,1 C -0,1 C -2,0 C 0,0 C 88 % 93 % 0 % 1028,0 hPa 0,0 l/m 0,2 km/h (0 Bft) SW 225 0 min 0,0 UV-I -1,0 C -2,0 C 0,0 km/h (0 Bft)
31.10.2009 21:40 0,8 C 8,8 C 0,1 C -0,1 C -1,9 C 0,0 C 88 % 92 % 0 % 1028,0 hPa 0,0 l/m 0,2 km/h (0 Bft) O-NO 67 0 min 0,0 UV-I -1,0 C -1,9 C 0,0 km/h (0 Bft)
31.10.2009 21:45 0,8 C 8,8 C 0,0 C -0,1 C -2,0 C 0,0 C 88 % 93 % 0 % 1028,0 hPa 0,0 l/m 0,3 km/h (0 Bft) W 270 0 min 0,0 UV-I -1,0 C -2,0 C 0,0 km/h (0 Bft)
31.10.2009 21:50 0,8 C 8,8 C 0,1 C -0,2 C -2,1 C 0,0 C 88 % 93 % 0 % 1028,0 hPa 0,0 l/m 0,3 km/h (0 Bft) W-SW 247 0 min 0,0 UV-I -1,0 C -2,1 C 1,8 km/h (1 Bft)
31.10.2009 21:55 0,8 C 8,8 C 0,1 C -0,2 C -2,1 C 0,0 C 88 % 93 % 0 % 1028,0 hPa 0,0 l/m 0,0 km/h (0 Bft) W-SW 247 0 min 0,0 UV-I -1,0 C -2,1 C 0,0 km/h (0 Bft)
31.10.2009 22:00 0,8 C 8,8 C 0,2 C -0,2 C -2,2 C 0,0 C 88 % 93 % 0 % 1027,7 hPa 0,0 l/m 0,0 km/h (0 Bft) W-SW 247 0 min 0,0 UV-I -1,0 C -2,2 C 0,0 km/h (0 Bft)
31.10.2009 22:10 0,5 C 8,8 C -0,1 C -0,4 C -2,2 C 0,0 C 88 % 92 % 0 % 1027,7 hPa 0,0 l/m 0,0 km/h (0 Bft) W-SW 247 0 min 0,0 UV-I -1,3 C -2,2 C 0,0 km/h (0 Bft)
31.10.2009 22:15 0,5 C 8,8 C -0,2 C -0,4 C -2,2 C 0,0 C 88 % 92 % 0 % 1027,7 hPa 0,0 l/m 0,0 km/h (0 Bft) W-SW 247 0 min 0,0 UV-I -1,3 C -2,2 C 0,0 km/h (0 Bft)
31.10.2009 22:20 0,5 C 8,8 C -0,2 C -0,4 C -2,2 C 0,0 C 88 % 92 % 0 % 1027,7 hPa 0,0 l/m 0,0 km/h (0 Bft) W-SW 247 0 min 0,0 UV-I -1,3 C -2,2 C 0,0 km/h (0 Bft)
31.10.2009 22:25 0,5 C 8,8 C -0,1 C -0,3 C -2,0 C 0,0 C 88 % 93 % 0 % 1027,7 hPa 0,0 l/m 0,0 km/h (0 Bft) O-NO 67 0 min 0,0 UV-I -1,3 C -2,0 C 0,0 km/h (0 Bft)
31.10.2009 22:30 0,5 C 8,7 C -0,1 C -0,3 C -2,0 C 0,0 C 88 % 93 % 0 % 1027,7 hPa 0,0 l/m 0,0 km/h (0 Bft) O-NO 67 0 min 0,0 UV-I -1,3 C -2,0 C 0,0 km/h (0 Bft)
31.10.2009 22:35 0,5 C 8,7 C -0,1 C -0,3 C -2,0 C 0,0 C 89 % 93 % 0 % 1027,7 hPa 0,0 l/m 0,0 km/h (0 Bft) O-NO 67 0 min 0,0 UV-I -1,1 C -2,0 C 0,0 km/h (0 Bft)
31.10.2009 22:40 0,6 C 8,7 C -0,1 C -0,3 C -2,2 C 0,0 C 88 % 93 % 0 % 1027,9 hPa 0,0 l/m 0,0 km/h (0 Bft) O-NO 67 0 min 0,0 UV-I -1,2 C -2,2 C 0,0 km/h (0 Bft)
31.10.2009 22:45 0,5 C 8,7 C -0,1 C -0,4 C -2,2 C 0,0 C 88 % 93 % 0 % 1027,9 hPa 0,0 l/m 0,0 km/h (0 Bft) O-NO 67 0 min 0,0 UV-I -1,3 C -2,2 C 0,0 km/h (0 Bft)
31.10.2009 22:50 0,4 C 8,7 C -0,1 C -0,5 C -2,2 C 0,0 C 89 % 93 % 0 % 1027,9 hPa 0,0 l/m 0,0 km/h (0 Bft) O-NO 67 0 min 0,0 UV-I -1,2 C -2,2 C 0,0 km/h (0 Bft)
31.10.2009 22:55 0,5 C 8,7 C -0,1 C -0,4 C -2,2 C 0,0 C 89 % 93 % 0 % 1027,9 hPa 0,0 l/m 0,0 km/h (0 Bft) O-NO 67 0 min 0,0 UV-I -1,1 C -2,2 C 0,0 km/h (0 Bft)
31.10.2009 23:00 0,7 C 8,7 C 0,0 C -0,3 C -2,3 C 0,0 C 89 % 93 % 0 % 1027,8 hPa 0,0 l/m 0,0 km/h (0 Bft) W-SW 247 0 min 0,0 UV-I -0,9 C -2,3 C 0,0 km/h (0 Bft)
31.10.2009 23:10 0,7 C 8,7 C -0,1 C -0,3 C -2,3 C 0,0 C 88 % 93 % 0 % 1027,8 hPa 0,0 l/m 0,0 km/h (0 Bft) W-SW 247 0 min 0,0 UV-I -1,1 C -2,3 C 0,0 km/h (0 Bft)
31.10.2009 23:15 0,5 C 8,7 C -0,1 C -0,4 C -2,3 C 0,0 C 88 % 93 % 0 % 1027,8 hPa 0,0 l/m 0,0 km/h (0 Bft) W-SW 247 0 min 0,0 UV-I -1,3 C -2,3 C 0,0 km/h (0 Bft)
31.10.2009 23:20 0,4 C 8,7 C -0,3 C -0,4 C -2,1 C 0,0 C 88 % 92 % 0 % 1027,8 hPa 0,0 l/m 0,0 km/h (0 Bft) W-SW 247 0 min 0,0 UV-I -1,3 C -2,1 C 0,0 km/h (0 Bft)
31.10.2009 23:25 0,4 C 8,7 C -0,1 C -0,4 C -2,1 C 0,0 C 88 % 93 % 0 % 1027,8 hPa 0,0 l/m 0,0 km/h (0 Bft) W-SW 247 0 min 0,0 UV-I -1,3 C -2,1 C 0,0 km/h (0 Bft)
31.10.2009 23:30 0,4 C 8,7 C -0,3 C -0,4 C -2,0 C 0,0 C 89 % 92 % 0 % 1027,8 hPa 0,0 l/m 0,0 km/h (0 Bft) W-SW 247 0 min 0,0 UV-I -1,2 C -2,0 C 0,0 km/h (0 Bft)
31.10.2009 23:35 0,5 C 8,6 C -0,1 C -0,4 C -2,1 C 0,0 C 89 % 93 % 0 % 1027,8 hPa 0,0 l/m 0,0 km/h (0 Bft) W-SW 247 0 min 0,0 UV-I -1,1 C -2,1 C 0,0 km/h (0 Bft)
31.10.2009 23:40 0,6 C 8,6 C 0,0 C -0,3 C -2,1 C 0,0 C 89 % 93 % 0 % 1027,8 hPa 0,0 l/m 0,0 km/h (0 Bft) W-SW 247 0 min 0,0 UV-I -1,0 C -2,1 C 0,0 km/h (0 Bft)
31.10.2009 23:45 0,5 C 8,6 C 0,0 C -0,3 C -2,0 C 0,0 C 89 % 93 % 0 % 1027,8 hPa 0,0 l/m 0,0 km/h (0 Bft) W-SW 247 0 min 0,0 UV-I -1,1 C -2,0 C 0,0 km/h (0 Bft)
31.10.2009 23:50 0,4 C 8,6 C -0,1 C -0,4 C -2,0 C 0,0 C 89 % 93 % 0 % 1027,8 hPa 0,0 l/m 0,0 km/h (0 Bft) W-SW 247 0 min 0,0 UV-I -1,2 C -2,0 C 0,0 km/h (0 Bft)
31.10.2009 23:55 0,4 C 8,6 C -0,1 C -0,5 C -2,2 C 0,0 C 89 % 93 % 0 % 1027,8 hPa 0,0 l/m 0,0 km/h (0 Bft) W-SW 247 0 min 0,0 UV-I -1,2 C -2,2 C 0,0 km/h (0 Bft)
_ Min-Zeit 07:15 11:00 07:20 07:15 06:25 00:00 13:45 14:20 00:00 22:00 - 00:20 - - - 00:00 07:15 06:25 00:10
Minimum _ -0,4 C 8,2 C -1,2 C -1,3 C -3,4 C 0,0 C 68 % 67 % 0 % 1027,7 hPa - 0,0 km/h (0 Bft) - - - 0,0 UV-I -2,1 C -3,4 C 0,0 km/h (0 Bft)
_ Max-Zeit 15:35 00:00 14:30 11:45 11:45 11:45 08:50 09:15 11:30 07:40 00:00 13:45 - - 15:34 11:55 12:50 11:45 13:55
Maximum _ 7,4 C 9,9 C 8,9 C 11,1 C 11,1 C 6,2 C 90 % 95 % 100 % 1031,1 hPa 0,0 l/m 3,9 km/h
O (1 Bft)
- - 11 min 0,4 UV-I 3,1 C 11,1 C 8,0 km/h
O-NO (2 Bft)
Durchschnitt _ 2,7 C 8,9 C 2,2 C 2,5 C 1,2 C 0,5 C 85 % 88 % 12 % 1029,2 hPa #0,0 l/m 0,6 km/h (0 Bft) O-NO - #1:32 h 0,2 UV-I 0,4 C 1,2 C 0,8 km/h (0 Bft)
2013 www.wetterstation-wechselburg.de